Location: Aiyekoto
(8.4333°N, 4.3667°E)
Time: 14:45:13
(UTC+00:00)

GEOS 3 Rocket - Pass Details

Date: 07 June 2020
Orbit: 772 x 847 km, 115.0° (Epoch: 07 July)

Event Time Altitude Azimuth Distance (km) Brightness Sun altitude
Rises 03:19:02 0° 148° (SSE) 3,248 6.8 -28.3°
Reaches altitude 10° 03:21:17 10° 146° (SE) 2,326 6.0 -27.8°
Maximum altitude 03:26:18 76° 61° (ENE) 812 3.6 -26.8°
Drops below altitude 10° 03:31:25 10° 336° (NNW) 2,364 6.1 -25.7°
Sets 03:33:43 0° 335° (NNW) 3,304 6.8 -25.2°
